Hourly Data Report for October 31, 2015

All times are specified in Local Standard Time (LST). Add 1 hour to adjust for Daylight Saving Time where and when it is observed.

KUGLUKTUK A
NUNAVUT

67°49'00.000" N
115°08'38.000" W
22.60 m
2300903
71938
YCO

Download Data

Hourly Data (October 2015)
Hourly Data Report for October 31, 2015
Temp Definition
°C
Dew Point Temp Definition
°C
Rel Hum Definition
%
Wind Dir Definition
10's deg

Wind Spd Definition
km/h
Visibility Definition
km
Stn Press Definition
kPa
Hmdx Definition


Wind Chill Definition


Weather Definition


TIME
00:00 Legend Double Dagger -13.3 -15.2 86 10 8 19.3 100.02   -18 Ice Crystals
01:00 Legend Double Dagger -13.6 -15.3 87 10 7 19.3 100.05   -18 Ice Crystals
02:00 Legend Double Dagger -14.0 -15.4 89 13 7 19.3 100.08   -19 Ice Crystals
03:00 Legend Double Dagger -16.8 -18.5 87 36 2 19.3 100.11   -18 Ice Crystals
04:00 Legend Double Dagger -16.8 -18.6 86 23 11 19.3 100.15   -24 Ice Crystals
05:00 Legend Double Dagger -15.5 -17.2 87 24 5 12.9 100.18   -19 Ice Crystals
06:00 Legend Double Dagger -15.6 -17.4 86 22 10 16.1 100.20   -22 Ice Crystals
07:00 Legend Double Dagger -15.0 -16.7 87 22 8 19.3 100.23   -20 Ice Crystals
08:00 Legend Double Dagger -14.0 -15.6 88 26 3 9.7 100.26   -16 Snow
09:00 Legend Double Dagger -13.3 -14.9 88 22 7 4.8 100.28   -18 Snow
10:00 Legend Double Dagger -12.8 -14.4 88 21 4 3.6 100.29   -15 Snow
11:00 Legend Double Dagger -11.4 -12.9 89 1 31 2.4 100.31   -21 Snow,Blowing Snow
12:00 Legend Double Dagger -11.9 -13.6 87 36 34 6.4 100.36   -23 Snow,Blowing Snow
13:00 Legend Double Dagger -12.2 -14.1 86 35 36 8.1 100.40   -23 Snow,Blowing Snow
14:00 Legend Double Dagger -12.5 -14.4 86 35 35 16.1 100.45   -23 Snow,Blowing Snow
15:00 Legend Double Dagger -12.8 -14.5 87 35 30 19.3 100.50   -23 Snow,Blowing Snow
16:00 Legend Double Dagger -13.6 -15.2 88 35 30 12.9 100.54   -24 Snow,Blowing Snow
17:00 Legend Double Dagger -14.3 -16.0 87 34 28 8.1 100.58   -25 Snow,Blowing Snow
18:00 Legend Double Dagger -14.4 -16.3 86 34 25 16.1 100.63   -24 Snow,Blowing Snow
19:00 Legend Double Dagger -13.7 -15.6 86 35 21 9.7 100.65   -23 Snow,Blowing Snow
20:00 Legend Double Dagger -14.5 -16.2 87 34 26 12.9 100.67   -25 Snow,Blowing Snow
21:00 Legend Double Dagger -13.8 -16.0 84 34 16 12.9 100.71   -22 Snow,Blowing Snow
22:00 Legend Double Dagger -13.4 -15.7 83 33 22 16.1 100.75   -23 Snow,Blowing Snow
23:00 Legend Double Dagger -13.0 -15.2 84 34 20 12.9 100.78   -22 Snow,Blowing Snow

Notes on Data Quality.

Legend

  • E = Estimated
  • M = Missing
  • NA = Not Available
  • ‡ = Partner data that is not subject to review by the National Climate Archives
Date modified: